Location: Boiro
(42.6475°N, 8.8834°W)
Time: 13:09:58
(UTC+02:00)

deb Agena D - Pass Details

Date: 04 July 2022
Orbit: 997 x 1025 km, 100.1° (Epoch: 16 August)

Event Time Altitude Azimuth Distance (km) Brightness Sun altitude
Exits shadow 23:41:46 - 95° (E) 3,219 ? -12.7°
Reaches altitude 10° 23:43:35 10° 82° (E) 2,819 ? -12.9°
Maximum altitude 23:46:42 14° 52° (NE) 2,519 ? -13.3°
Drops below altitude 10° 23:49:49 10° 23° (NNE) 2,827 ? -13.7°
Sets 23:53:37 0° 0° (N) 3,782 ? -14.1°
